Погода в Мурмуйже

Латвия     57°28′21″N   25°29′31″E
темп.,
°C
ветер,
м/с
пор.,
м/с
влажн.,
%
обл.,
%
осадки,
мм/ч
давл.,
гПа
погр.,
м
4 марта, чт
чт423:00+2з51085100 0.0 1010688
02:00+2з498797 0.0 1009696
05:00+1ссз5997100 1.0 1006526
08:000сз4887100 1.4 1006617
11:00+1сз466320 0.0 10071011
14:00+3ссз574846 0.1 10081719
17:00+1ссз485140 0.0 10091385
20:00−2зсз386320 0.0 1010380
5 марта, пт
пт523:00−2з487718 0.0 1010752
02:00−3зсз498054 0.0 1010798
05:00−3ссз5968100 0.3 10121173
08:00−4ссз495364 0.3 1013954
11:00−1ссз47390 0.0 10141677
14:000сз473830 0.0 10151891
17:00−1сз345199 0.0 10161190
20:00−4св128397 0.1 101896
6 марта, сб
сб623:00−5ссз146220 0.0 1020181
02:00−5зсз256710 0.0 1022217
05:00−6з25770 0.0 1022173
08:00−5зюз37760 0.0 1022331
11:00−1зюз695230 0.0 10201242
14:00+1зюз7135264 0.0 10161458
17:00+1зюз81649100 0.0 10131495
20:000зюз91856100 0.0 10091321
7 марта, вс
вс723:000зюз81592100 0.8 10041190
02:00−2сз61391100 4.4 1003919
05:00−4сз6145775 0.2 10041906
08:00−4з5125441 0.2 10041400
11:00−1зсз8145061 0.1 10032095
14:00−1з8145080 0.5 10012198
17:00−2зсз81457100 0.4 9991917
20:00−5сз6127185 0.4 10021193
8 марта, пн
пн823:00−5сз4881100 0.1 10061049
02:00−7ссз388372 0.1 1008771
05:00−8сз26847 0.0 1009224
08:00−7ссз477954 0.1 1012768
11:00−6с4663100 0.1 10141078
14:00−6с5759100 0.1 10161199
17:00−6с4858100 0.0 10181224
20:00−8с397155 0.0 1021640